Regional Weather Roundup
Issued by NWS

Home | Current Version | Previous Version | Text Only | Print | Product List | Glossary Off
Versions: 1 2 3 4 5 6 7 8 9 10 11 12 13 14 15 16 17 18 19 20 21 22 23 24 25 26 27 28 29 30 31 32 33 34 35 36 37 38 39 40 41 42 43 44 45 46 47 48 49 50

000
ASUS43 KOAX 252102
RWRNE

WEATHER ROUNDUP FOR NEBRASKA
NATIONAL WEATHER SERVICE OMAHA NE
400 PM CDT TUE APR 25 2017

NOTES: SATELLITE DATA IS BEING USED TO AUGMENT CLOUD COVER ABOVE
       12000 FEET.
       "FAIR" INDICATES FEW OR NO CLOUDS BELOW 12,000 FEET WITH NO
       SIGNIFICANT WEATHER AND/OR OBSTRUCTIONS TO VISIBILITY.

  * THESE STATIONS DO NOT REPORT WEATHER SUCH AS RAIN...SNOW OR FOG.

NEZ001>004-019>022-054>056-252200-
NEBRASKA PANHANDLE

CITY           SKY/WX    TMP DP  RH WIND       PRES   REMARKS
SCOTTSBLUFF    CLOUDY    42  35  76 NE17      29.67R
ALLIANCE       CLOUDY    39  33  79 NE18      29.66R WCI  30
CHADRON        LGT SNOW  35  31  85 N21G26    29.75R FOG     WCI  24
KIMBALL        SUNNY     50  42  73 NE18G26   29.62R
SIDNEY         MOSUNNY   51  42  71 NE22G31   29.59R
$$

NEZ057>060-069>072-079>082-252200-
SOUTHWEST NEBRASKA

CITY           SKY/WX    TMP DP  RH WIND       PRES   REMARKS
NORTH PLATTE   CLOUDY    46  39  76 N12G22    29.63R
IMPERIAL       PTSUNNY   53  43  68 NE10      29.59R
LEXINGTON      CLOUDY    45  40  81 N15G21    29.62R
MCCOOK         CLOUDY    52  43  71 N10       29.59S
OGALLALA       CLOUDY    53  42  65 NE15      29.61R
$$

NEZ005>010-023>029-035>040-094-252200-
NORTH CENTRAL NEBRASKA

CITY           SKY/WX    TMP DP  RH WIND       PRES   REMARKS
VALENTINE      CLOUDY    37  30  75 N17       29.72R WCI  27
AINSWORTH      CLOUDY    35  34  96 N21G29    29.69R WCI  23
BROKEN BOW     CLOUDY    40  37  89 N20       29.64R WCI  30
O`NEILL        CLOUDY    39  35  85 N20       29.65S WCI  29
ORD            CLOUDY    39  35  86 N18G25    29.63R WCI  30
THEDFORD       CLOUDY    39  36  89 N15G22    29.67R WCI  31
$$

NEZ041-046>049-061>064-073>077-083>087-252200-
SOUTH CENTRAL NEBRASKA

CITY           SKY/WX    TMP DP  RH WIND       PRES   REMARKS
GRAND ISLAND   CLOUDY    42  39  89 N17       29.61R
AURORA         CLOUDY    42  38  86 N17       29.59R
HASTINGS       CLOUDY    44  39  82 N18       29.59S
HEBRON         CLOUDY    48  39  70 N14G22    29.54R
HOLDREGE       CLOUDY    44  40  87 N16       29.60R
KEARNEY *      CLOUDY    43  37  81 N20       29.60S
YORK           CLOUDY    43  39  87 N16G26    29.57R
$$

NEZ011>018-030>034-042>045-252200-
NORTHEAST NEBRASKA

CITY           SKY/WX    TMP DP  RH WIND       PRES   REMARKS
NORFOLK        CLOUDY    41  37  86 N16       29.58S
ALBION         CLOUDY    41  37  86 N13G21    29.61S
BLAIR          CLOUDY    47  43  83 N16G23    29.52R
FREMONT        CLOUDY    46  40  81 N13G22    29.54F
TEKAMAH        CLOUDY    46  40  79 N17       29.55R
WAYNE          CLOUDY    42  42  99 N13G20    29.59S
$$

NEZ050>053-065>068-078-088>093-252200-
SOUTHEAST NEBRASKA

CITY           SKY/WX    TMP DP  RH WIND       PRES   REMARKS
LINCOLN        CLOUDY    49  41  74 N18       29.54R
OMAHA EPPLEY   CLOUDY    51  43  74 N16G25    29.51R
BEATRICE       CLOUDY    52  44  72 N16       29.51R
FALLS CITY     CLOUDY    60  48  64 NW13G21   29.43R
NEBRASKA CITY  CLOUDY    54  42  64 N16       29.48R
PLATTSMOUTH    CLOUDY    52  42  68 NW15      29.49R
$$

NEZ044-045-051>053-067-252200-
OMAHA AREA

CITY           SKY/WX    TMP DP  RH WIND       PRES   REMARKS
OMAHA EPPLEY   CLOUDY    51  43  74 N16G25    29.51R
BLAIR          CLOUDY    47  43  83 N16G23    29.52R
FREMONT        CLOUDY    46  40  81 N13G22    29.54F
MILLARD        CLOUDY    51  45  78 NW9G17    29.52R
OFFUTT AFB     CLOUDY    51  44  75 NW12G17   29.50R
PLATTSMOUTH    CLOUDY    52  42  68 NW15      29.49R
WAHOO          CLOUDY    47  40  76 N21       29.52F
$$




USA.gov is the U.S. government's official web portal to all federal, state and local government web resources and services.